TimeCST,TemperatureF,Dew PointF,Humidity,Sea Level PressureIn,VisibilityMPH,Wind Direction,Wind SpeedMPH,Gust SpeedMPH,PrecipitationIn,Events,Conditions,WindDirDegrees,DateUTC
12:15 AM,61.3,18.0,19,29.90,7.0,NNW,18.4,26.5,N/A,,Clear,340,2013-02-26 06:15:00
12:35 AM,60.8,18.0,19,29.92,10.0,NNW,18.4,-,N/A,,Clear,340,2013-02-26 06:35:00
12:55 AM,60.1,18.3,20,29.92,7.0,NNW,15.0,-,N/A,,Clear,340,2013-02-26 06:55:00
1:15 AM,59.0,18.7,21,29.92,10.0,NNW,5.8,-,N/A,,Clear,340,2013-02-26 07:15:00
1:35 AM,57.2,19.2,23,29.91,7.0,NNW,10.4,-,N/A,,Clear,340,2013-02-26 07:35:00
1:55 AM,58.3,18.9,22,29.91,7.0,NNW,15.0,-,N/A,,Clear,340,2013-02-26 07:55:00
2:15 AM,57.7,19.4,23,29.91,7.0,North,20.7,25.3,N/A,,Clear,350,2013-02-26 08:15:00
2:35 AM,56.8,19.4,23,29.92,7.0,North,18.4,24.2,N/A,,Clear,360,2013-02-26 08:35:00
2:55 AM,56.3,19.9,24,29.94,5.0,North,15.0,21.9,N/A,,Haze,360,2013-02-26 08:55:00
3:15 AM,55.4,20.1,25,29.94,10.0,North,9.2,-,N/A,,Clear,350,2013-02-26 09:15:00
3:35 AM,53.6,20.3,27,29.96,7.0,NNW,5.8,-,N/A,,Clear,330,2013-02-26 09:35:00
3:55 AM,52.9,20.5,28,29.97,7.0,West,4.6,-,N/A,,Clear,260,2013-02-26 09:55:00
4:15 AM,51.6,20.8,30,29.97,7.0,WSW,4.6,-,N/A,,Clear,240,2013-02-26 10:15:00
4:35 AM,51.6,20.8,30,29.97,7.0,NW,6.9,-,N/A,,Clear,320,2013-02-26 10:35:00
4:55 AM,50.4,21.0,32,29.98,7.0,West,3.5,-,N/A,,Clear,270,2013-02-26 10:55:00
5:15 AM,51.3,21.0,31,29.98,7.0,WNW,4.6,-,N/A,,Clear,300,2013-02-26 11:15:00
5:35 AM,49.5,21.0,33,29.98,7.0,WNW,4.6,-,N/A,,Clear,300,2013-02-26 11:35:00
5:55 AM,47.3,21.7,36,29.99,7.0,Calm,Calm,-,N/A,,Clear,0,2013-02-26 11:55:00
6:15 AM,46.8,21.7,37,30.00,7.0,Calm,Calm,-,N/A,,Clear,0,2013-02-26 12:15:00
6:35 AM,45.3,23.5,42,30.01,7.0,Calm,Calm,-,N/A,,Clear,0,2013-02-26 12:35:00
6:55 AM,42.8,23.0,46,30.01,7.0,NNW,4.6,-,N/A,,Clear,340,2013-02-26 12:55:00
7:15 AM,43.3,22.3,43,30.02,5.0,SW,9.2,-,N/A,,Haze,220,2013-02-26 13:15:00
7:35 AM,47.3,23.4,39,30.02,5.0,WSW,5.8,-,N/A,,Haze,240,2013-02-26 13:35:00
7:55 AM,48.7,23.7,38,30.03,5.0,WSW,4.6,-,N/A,,Haze,250,2013-02-26 13:55:00
8:35 AM,55.0,22.8,29,30.05,7.0,WSW,6.9,-,N/A,,Clear,250,2013-02-26 14:35:00
8:55 AM,57.2,21.9,26,30.05,5.0,West,5.8,-,N/A,,Haze,270,2013-02-26 14:55:00
9:15 AM,58.5,21.7,24,30.06,5.0,West,6.9,-,N/A,,Haze,270,2013-02-26 15:15:00
9:35 AM,59.7,21.2,23,30.06,7.0,North,4.6,-,N/A,,Clear,350,2013-02-26 15:35:00
9:55 AM,60.8,20.1,21,30.06,5.0,NE,5.8,-,N/A,,Haze,40,2013-02-26 15:55:00
10:15 AM,62.4,19.6,19,30.05,5.0,NNE,5.8,-,N/A,,Haze,20,2013-02-26 16:15:00
10:35 AM,63.3,19.8,19,30.05,7.0,NW,6.9,-,N/A,,Clear,320,2013-02-26 16:35:00
10:55 AM,64.2,18.9,18,30.04,7.0,North,3.5,-,N/A,,Clear,350,2013-02-26 16:55:00
11:15 AM,66.2,17.4,15,30.04,7.0,North,8.1,-,N/A,,Clear,350,2013-02-26 17:15:00
11:35 AM,67.1,17.6,15,30.03,7.0,NW,5.8,-,N/A,,Clear,310,2013-02-26 17:35:00
11:55 AM,67.6,16.9,14,30.02,7.0,NW,5.8,-,N/A,,Clear,320,2013-02-26 17:55:00
12:15 PM,69.1,16.2,13,30.01,5.0,NNW,6.9,-,N/A,,Haze,340,2013-02-26 18:15:00
12:35 PM,70.7,15.8,12,29.99,7.0,NW,3.5,-,N/A,,Clear,320,2013-02-26 18:35:00
12:55 PM,70.7,15.1,12,29.97,7.0,Calm,Calm,-,N/A,,Clear,0,2013-02-26 18:55:00
1:15 PM,72.0,14.5,11,29.96,7.0,Calm,Calm,-,N/A,,Clear,0,2013-02-26 19:15:00
1:35 PM,73.0,14.5,11,29.95,7.0,West,3.5,-,N/A,,Clear,260,2013-02-26 19:35:00
1:55 PM,74.7,12.4,9,29.93,7.0,West,3.5,-,N/A,,Clear,280,2013-02-26 19:55:00
2:15 PM,74.7,12.0,9,29.91,7.0,Calm,Calm,-,N/A,,Clear,0,2013-02-26 20:15:00
2:35 PM,75.7,10.8,8,29.91,7.0,Calm,Calm,-,N/A,,Clear,0,2013-02-26 20:35:00
2:55 PM,75.4,10.4,8,29.89,5.0,East,3.5,-,N/A,,Haze,90,2013-02-26 20:55:00
3:15 PM,76.3,11.5,8,29.89,7.0,Calm,Calm,-,N/A,,Clear,0,2013-02-26 21:15:00
3:35 PM,76.8,10.2,8,29.89,7.0,SW,6.9,-,N/A,,Clear,230,2013-02-26 21:35:00
3:55 PM,76.6,10.9,8,29.87,7.0,East,3.5,-,N/A,,Clear,90,2013-02-26 21:55:00
4:15 PM,76.3,10.4,8,29.87,7.0,SW,3.5,-,N/A,,Clear,230,2013-02-26 22:15:00
4:35 PM,76.5,12.4,9,29.87,7.0,Calm,Calm,-,N/A,,Clear,0,2013-02-26 22:35:00
4:55 PM,76.5,12.6,9,29.87,7.0,South,9.2,-,N/A,,Clear,190,2013-02-26 22:55:00
5:15 PM,76.1,12.2,9,29.88,7.0,SSE,6.9,-,N/A,,Clear,150,2013-02-26 23:15:00
5:35 PM,75.6,12.6,9,29.88,7.0,SSW,6.9,-,N/A,,Clear,200,2013-02-26 23:35:00
5:55 PM,74.7,12.6,9,29.89,7.0,South,6.9,-,N/A,,Clear,170,2013-02-26 23:55:00
6:15 PM,73.2,12.9,10,29.88,7.0,South,6.9,-,N/A,,Clear,170,2013-02-27 00:15:00
6:35 PM,70.5,13.1,11,29.89,7.0,SSE,4.6,-,N/A,,Clear,160,2013-02-27 00:35:00
6:55 PM,67.3,14.5,13,29.89,7.0,SE,5.8,-,N/A,,Clear,140,2013-02-27 00:55:00
7:15 PM,66.0,19.0,17,29.90,7.0,SE,11.5,-,N/A,,Clear,130,2013-02-27 01:15:00
7:35 PM,64.2,32.0,30,29.91,7.0,SE,10.4,-,N/A,,Clear,140,2013-02-27 01:35:00
7:55 PM,65.1,32.0,29,29.92,7.0,SE,10.4,-,N/A,,Clear,140,2013-02-27 01:55:00
8:15 PM,63.5,32.0,31,29.94,7.0,SSE,9.2,-,N/A,,Clear,150,2013-02-27 02:15:00
8:35 PM,63.3,32.2,31,29.95,7.0,SSE,11.5,-,N/A,,Clear,150,2013-02-27 02:35:00
8:55 PM,62.1,32.7,33,29.94,7.0,SSE,9.2,-,N/A,,Clear,150,2013-02-27 02:55:00
9:15 PM,60.4,33.8,37,29.94,7.0,SSE,6.9,-,N/A,,Clear,160,2013-02-27 03:15:00
9:35 PM,59.4,34.3,39,29.95,7.0,South,5.8,-,N/A,,Clear,170,2013-02-27 03:35:00
9:55 PM,57.9,35.8,44,29.95,10.0,SSE,5.8,-,N/A,,Clear,150,2013-02-27 03:55:00
10:15 PM,56.5,36.7,48,29.95,7.0,SSE,5.8,-,N/A,,Scattered Clouds,160,2013-02-27 04:15:00
10:55 PM,57.2,39.2,51,29.94,7.0,South,6.9,-,N/A,,Clear,170,2013-02-27 04:55:00
11:15 PM,56.7,39.7,53,29.93,7.0,South,5.8,-,N/A,,Clear,170,2013-02-27 05:15:00
11:35 PM,55.4,40.1,56,29.93,7.0,SE,5.8,-,N/A,,Clear,140,2013-02-27 05:35:00